WA6MEM Weather Reports


Display with metric or nautical units.
time (UTC)temp
F
wind
direction
speed
MPH
gust
MPH
rain 1hr
in
rain 24hr
in
rain mn
in
humidity
%
barometer
mb
20260506051058 53 166 2.0 0.0 0.00 0.00 0.00 93 1015.2
20260506050558 53 167 2.0 0.0 0.00 0.00 0.00 93 1015.2
20260506050106 53 161 2.0 0.0 0.00 0.00 0.00 93 1015.2
20260506045056 53 161 1.0 0.0 0.00 0.00 0.00 92 1015.1
20260506044556 53 176 1.0 0.0 0.00 0.00 0.00 92 1015.1
20260506044056 53 175 1.0 0.0 0.00 0.00 0.00 92 1015.0
20260506043556 53 178 1.0 0.0 0.00 0.00 0.00 92 1015.0
20260506043100 53 160 1.0 0.0 0.00 0.00 0.00 92 1015.0
20260506042557 53 160 1.0 0.0 0.00 0.00 0.00 91 1014.7
20260506042057 54 160 1.0 0.0 0.00 0.00 0.00 91 1014.7
20260506041601 54 160 1.0 0.0 0.00 0.00 0.00 91 1014.7
20260506041056 54 160 1.0 0.0 0.00 0.00 0.00 90 1014.7
20260506040555 53 169 2.0 0.0 0.00 0.00 0.00 89 1014.7
20260506040055 53 177 2.0 0.0 0.00 0.00 0.00 88 1014.7
20260506035558 53 166 2.0 0.0 0.00 0.00 0.00 87 1014.5
20260506035056 53 182 2.0 0.0 0.00 0.00 0.00 86 1014.5
20260506034612 53 193 2.0 0.0 0.00 0.00 0.00 86 1014.5
20260506034056 53 179 2.0 0.0 0.00 0.00 0.00 86 1014.3
20260506033554 53 171 1.0 0.0 0.00 0.00 0.00 86 1014.3
20260506033053 53 165 1.0 0.0 0.00 0.00 0.00 88 1014.3
20260506032559 53 165 1.0 0.0 0.00 0.00 0.00 88 1014.2
20260506032058 53 165 1.0 0.0 0.00 0.00 0.00 89 1014.2
20260506031601 54 195 0.0 0.0 0.00 0.00 0.00 89 1014.2
20260506031053 54 195 1.0 0.0 0.00 0.00 0.00 90 1014.0
20260506030554 54 195 1.0 0.0 0.00 0.00 0.00 90 1014.0
20260506030052 54 195 1.0 0.0 0.00 0.00 0.00 89 1014.0
20260506025553 54 205 2.0 0.0 0.00 0.00 0.00 89 1013.6
20260506025051 54 202 2.0 0.0 0.00 0.00 0.00 89 1013.6
20260506024607 54 200 2.0 0.0 0.00 0.00 0.00 88 1013.6
20260506024052 54 183 2.0 0.0 0.00 0.00 0.00 88 1013.6
20260506023552 55 165 2.0 0.0 0.00 0.00 0.00 88 1013.6
20260506023051 55 159 3.0 0.0 0.00 0.00 0.00 87 1013.6
20260506022551 55 136 3.0 0.0 0.00 0.00 0.00 86 1013.3
20260506022051 55 169 3.0 0.0 0.00 0.00 0.00 86 1013.3
20260506021552 55 205 3.0 0.0 0.00 0.00 0.00 85 1013.3
20260506021051 56 205 3.0 0.0 0.00 0.00 0.00 85 1013.3
20260506020552 56 179 3.0 0.0 0.00 0.00 0.00 85 1013.3
20260506020051 56 182 3.0 0.0 0.00 0.00 0.00 85 1013.3
20260506015551 56 182 2.0 0.0 0.00 0.00 0.00 86 1013.1
20260506015050 56 156 3.0 0.0 0.00 0.00 0.00 85 1013.1
20260506014551 56 169 3.0 0.0 0.00 0.00 0.00 85 1013.1
20260506014049 57 217 2.0 0.0 0.00 0.00 0.00 84 1013.0
20260506013553 57 182 2.0 0.0 0.00 0.00 0.00 83 1013.0
20260506013103 57 180 3.0 0.0 0.00 0.00 0.00 82 1013.0
20260506012550 58 221 3.0 0.0 0.00 0.00 0.00 81 1013.0
20260506012050 58 211 3.0 0.0 0.00 0.00 0.00 80 1013.0
20260506011604 59 215 3.0 0.0 0.00 0.00 0.00 79 1013.0
20260506011049 59 171 4.0 0.0 0.00 0.00 0.00 79 1013.0
20260506010549 59 213 3.0 0.0 0.00 0.00 0.00 76 1013.0
20260506010050 59 218 3.0 0.0 0.00 0.00 0.00 77 1013.0
20260506005549 59 187 4.0 0.0 0.00 0.00 0.00 76 1013.0
20260506005051 59 196 4.0 0.0 0.00 0.00 0.00 77 1013.0
20260506004548 58 205 4.0 0.0 0.00 0.00 0.00 78 1013.0
20260506004048 58 235 4.0 0.0 0.00 0.00 0.00 79 1013.1
20260506003548 58 226 4.0 0.0 0.00 0.00 0.00 79 1013.1
20260506003048 58 197 4.0 0.0 0.00 0.00 0.00 80 1013.1
20260506002547 58 255 4.0 0.0 0.00 0.00 0.00 80 1013.0
20260506002049 57 155 4.0 0.0 0.00 0.00 0.00 81 1013.0
20260506001548 57 175 4.0 0.0 0.00 0.00 0.00 82 1013.0
20260506001048 57 188 5.0 0.0 0.00 0.00 0.00 81 1013.0
20260506000548 57 181 5.0 0.0 0.00 0.00 0.00 80 1013.0
20260506000050 57 190 5.0 0.0 0.00 0.00 0.00 78 1013.0
20260505235547 58 175 5.0 0.0 0.00 0.00 0.00 78 1013.1
20260505235047 58 219 4.0 0.0 0.00 0.00 0.00 79 1013.1
20260505234546 58 207 5.0 0.0 0.00 0.00 0.00 79 1013.1
20260505234045 58 210 5.0 0.0 0.00 0.00 0.00 78 1013.0
20260505233545 59 186 5.0 0.0 0.00 0.00 0.00 76 1013.0
20260505233045 59 190 6.0 0.0 0.00 0.00 0.00 76 1013.0
20260505232545 59 186 5.0 0.0 0.00 0.00 0.00 75 1012.9
20260505232049 60 187 4.0 0.0 0.00 0.00 0.00 76 1012.9
20260505231546 60 182 5.0 0.0 0.00 0.00 0.00 77 1012.9
20260505231049 60 124 5.0 0.0 0.00 0.00 0.00 77 1012.9
20260505230545 60 180 4.0 0.0 0.00 0.00 0.00 76 1012.9
20260505230056 60 213 4.0 0.0 0.00 0.00 0.00 75 1012.9
20260505225546 59 237 5.0 0.0 0.00 0.00 0.00 77 1013.0
20260505225044 59 204 5.0 0.0 0.00 0.00 0.00 74 1013.0
20260505224547 60 258 5.0 0.0 0.00 0.00 0.00 72 1013.0
20260505224046 60 169 5.0 0.0 0.00 0.00 0.00 72 1013.2
20260505223543 60 229 5.0 0.0 0.00 0.00 0.00 72 1013.2
20260505223055 60 173 6.0 0.0 0.00 0.00 0.00 71 1013.2
20260505222543 60 242 5.0 0.0 0.00 0.00 0.00 68 1013.3
20260505222047 60 237 5.0 0.0 0.00 0.00 0.00 67 1013.3
20260505221544 60 205 5.0 0.0 0.00 0.00 0.00 67 1013.3
20260505221047 60 181 5.0 0.0 0.00 0.00 0.00 66 1013.4
20260505220542 60 181 5.0 0.0 0.00 0.00 0.00 67 1013.4
20260505220045 60 157 5.0 0.0 0.00 0.00 0.00 66 1013.4
20260505215542 60 211 5.0 0.0 0.00 0.00 0.00 67 1013.4
20260505215042 61 153 4.0 0.0 0.00 0.00 0.00 69 1013.4
20260505214542 61 119 4.0 0.0 0.00 0.00 0.00 70 1013.4
20260505214042 60 173 5.0 0.0 0.00 0.00 0.00 68 1013.5
20260505213545 61 185 5.0 0.0 0.00 0.00 0.00 68 1013.5
20260505213053 61 188 4.0 0.0 0.00 0.00 0.00 67 1013.5
20260505212541 61 212 3.0 0.0 0.00 0.00 0.00 70 1013.6
20260505212041 60 223 4.0 0.0 0.00 0.00 0.00 69 1013.6
20260505211541 60 208 5.0 0.0 0.00 0.00 0.00 70 1013.6
20260505211041 60 155 5.0 0.0 0.00 0.00 0.00 69 1013.5
20260505210540 60 191 5.0 0.0 0.00 0.00 0.00 66 1013.5
20260505210040 61 163 4.0 0.0 0.00 0.00 0.00 67 1013.5
20260505205540 60 200 4.0 0.0 0.00 0.00 0.00 66 1013.5
20260505205039 60 173 4.0 0.0 0.00 0.00 0.00 67 1013.5
20260505204540 60 160 5.0 0.0 0.00 0.00 0.00 67 1013.5
20260505204039 60 186 5.0 0.0 0.00 0.00 0.00 70 1013.5
20260505203539 60 153 5.0 0.0 0.00 0.00 0.00 67 1013.5
20260505203046 60 202 4.0 0.0 0.00 0.00 0.00 68 1013.5
20260505202539 60 192 4.0 0.0 0.00 0.00 0.00 67 1013.5
20260505202039 60 241 5.0 0.0 0.00 0.00 0.00 69 1013.5
20260505201541 60 163 5.0 0.0 0.00 0.00 0.00 67 1013.5
20260505201039 60 207 4.0 0.0 0.00 0.00 0.00 68 1013.5
20260505200539 60 210 5.0 0.0 0.00 0.00 0.00 68 1013.5
20260505200037 60 163 5.0 0.0 0.00 0.00 0.00 65 1013.5
20260505195540 60 226 5.0 0.0 0.00 0.00 0.00 68 1013.5
20260505195038 60 231 4.0 0.0 0.00 0.00 0.00 67 1013.5
20260505194536 60 259 4.0 0.0 0.00 0.00 0.00 69 1013.5
20260505194036 60 193 4.0 0.0 0.00 0.00 0.00 68 1013.7
20260505193536 60 360 4.0 0.0 0.00 0.00 0.00 69 1013.7
20260505193034 60 233 5.0 0.0 0.00 0.00 0.00 69 1013.7
20260505192534 60 184 5.0 0.0 0.00 0.00 0.00 72 1013.8
20260505192033 60 196 4.0 0.0 0.00 0.00 0.00 72 1013.8
20260505191533 59 187 4.0 0.0 0.00 0.00 0.00 74 1013.8
20260505191033 59 198 5.0 0.0 0.00 0.00 0.00 75 1013.9
20260505190534 59 213 5.0 0.0 0.00 0.00 0.00 76 1013.9
20260505190030 59 144 5.0 0.0 0.00 0.00 0.00 75 1013.9
20260505185531 59 208 5.0 0.0 0.00 0.00 0.00 75 1013.9
20260505185031 59 182 5.0 0.0 0.00 0.00 0.00 75 1013.9
20260505184530 59 163 6.0 0.0 0.00 0.00 0.00 73 1013.9
20260505184029 58 261 5.0 0.0 0.00 0.00 0.00 70 1013.9
20260505183528 58 201 5.0 0.0 0.00 0.00 0.00 76 1013.9
20260505183028 58 211 5.0 0.0 0.00 0.00 0.00 75 1013.9
20260505182527 58 205 4.0 0.0 0.00 0.00 0.00 76 1013.7
20260505182033 58 266 4.0 0.0 0.00 0.00 0.00 73 1013.7
20260505181527 58 217 4.0 0.0 0.00 0.00 0.00 72 1013.7
20260505181027 58 171 4.0 0.0 0.00 0.00 0.00 74 1013.7
20260505180525 58 281 4.0 0.0 0.00 0.00 0.00 74 1013.7
20260505180024 57 224 4.0 0.0 0.00 0.00 0.00 78 1013.7
20260505175523 57 206 4.0 0.0 0.00 0.00 0.00 79 1013.6
20260505175023 57 158 4.0 0.0 0.00 0.00 0.00 80 1013.6
20260505174522 57 177 3.0 0.0 0.00 0.00 0.00 80 1013.6
20260505174022 57 263 3.0 0.0 0.00 0.00 0.00 81 1013.5
20260505173520 57 148 3.0 0.0 0.00 0.00 0.00 80 1013.5
20260505173036 57 292 3.0 0.0 0.00 0.00 0.00 82 1013.5
20260505172520 57 244 3.0 0.0 0.00 0.00 0.00 81 1013.3
20260505172020 57 184 3.0 0.0 0.00 0.00 0.00 80 1013.3
20260505171520 57 190 2.0 0.0 0.00 0.00 0.00 81 1013.3
20260505171018 56 176 3.0 0.0 0.00 0.00 0.00 84 1013.3
20260505170517 56 270 4.0 0.0 0.00 0.00 0.00 84 1013.3
20260505170023 55 303 4.0 0.0 0.00 0.00 0.00 86 1013.3
20260505165516 55 233 4.0 0.0 0.00 0.00 0.00 86 1013.1
20260505165016 56 306 3.0 0.0 0.00 0.00 0.00 86 1013.1
20260505164535 55 275 3.0 0.0 0.00 0.00 0.00 85 1013.1
20260505164015 55 248 3.0 0.0 0.00 0.00 0.00 87 1013.1
20260505163514 55 258 4.0 0.0 0.00 0.00 0.00 85 1013.1
20260505163015 55 217 4.0 0.0 0.00 0.00 0.00 85 1013.1
20260505162514 55 281 3.0 0.0 0.00 0.00 0.00 84 1012.7
20260505162014 55 213 3.0 0.0 0.00 0.00 0.00 84 1012.7
20260505161513 55 184 3.0 0.0 0.00 0.00 0.00 86 1012.7
20260505161014 55 207 3.0 0.0 0.00 0.00 0.00 87 1012.6
20260505160511 55 252 2.0 0.0 0.00 0.00 0.00 88 1012.6
20260505153010 53 284 4.0 0.0 0.00 0.00 0.00 90 1012.7
20260505152505 53 274 4.0 0.0 0.00 0.00 0.00 91 1012.7
20260505152007 53 254 5.0 0.0 0.00 0.00 0.00 91 1012.7
20260505151504 53 243 5.0 0.0 0.00 0.00 0.00 91 1012.7
20260505151004 53 279 4.0 0.0 0.00 0.00 0.00 91 1012.6
20260505150504 52 225 3.0 0.0 0.00 0.00 0.00 92 1012.6
20260505140502 51 309 3.0 0.0 0.00 0.00 0.00 93 1012.2
20260505124558 51 252 3.0 0.0 0.00 0.00 0.00 93 1012.0
20260505124058 51 297 3.0 0.0 0.00 0.00 0.00 93 1012.0
20260505123556 50 329 3.0 0.0 0.00 0.00 0.00 93 1012.0
20260505123105 51 239 4.0 0.0 0.00 0.00 0.00 93 1012.0
20260505122559 51 246 4.0 0.0 0.00 0.00 0.00 94 1012.0
20260505122056 51 285 4.0 0.0 0.00 0.00 0.00 94 1012.0
20260505121556 50 257 4.0 0.0 0.00 0.00 0.00 94 1012.0
20260505121056 50 271 4.0 0.0 0.00 0.00 0.00 94 1012.0
20260505120556 50 270 4.0 0.0 0.00 0.00 0.00 94 1012.0
20260505120057 50 265 4.0 0.0 0.00 0.00 0.00 94 1012.0
20260505115558 50 254 3.0 0.0 0.00 0.00 0.00 94 1011.9
20260505115055 51 271 4.0 0.0 0.00 0.00 0.00 94 1011.9
20260505114554 51 264 4.0 0.0 0.00 0.00 0.00 94 1011.9
20260505114059 51 251 4.0 0.0 0.00 0.00 0.00 94 1011.8
20260505113556 51 267 3.0 0.0 0.00 0.00 0.00 94 1011.8
20260505113059 51 318 3.0 0.0 0.00 0.00 0.00 94 1011.8
20260505112553 51 300 3.0 0.0 0.00 0.00 0.00 94 1011.9
20260505112053 51 300 3.0 0.0 0.00 0.00 0.00 94 1011.9
20260505111557 51 304 4.0 0.0 0.00 0.00 0.00 94 1011.9
20260505111053 51 292 4.0 0.0 0.00 0.00 0.00 93 1011.9
20260505110552 51 231 3.0 0.0 0.00 0.00 0.00 93 1011.9
20260505102046 51 296 4.0 0.0 0.00 0.00 0.00 94 1011.9
20260505101546 51 280 3.0 0.0 0.00 0.00 0.00 94 1011.9
20260505101048 51 319 2.0 0.0 0.00 0.00 0.00 94 1012.0
20260505100545 51 321 3.0 0.0 0.00 0.00 0.00 94 1012.0
20260505100050 51 332 3.0 0.0 0.00 0.00 0.00 94 1012.0
20260505095546 51 286 3.0 0.0 0.00 0.00 0.00 94 1012.2
20260505095042 51 291 3.0 0.0 0.00 0.00 0.00 94 1012.2
20260505094543 51 273 4.0 0.0 0.00 0.00 0.00 94 1012.2
20260505094042 51 274 3.0 0.0 0.00 0.00 0.00 94 1012.3
20260505093543 51 250 4.0 0.0 0.00 0.00 0.00 94 1012.3
20260505093043 51 298 4.0 0.0 0.00 0.00 0.00 94 1012.3
20260505092542 51 324 5.0 0.0 0.00 0.00 0.00 94 1012.4
20260505092040 51 311 5.0 0.0 0.00 0.00 0.00 94 1012.4
20260505091552 51 295 4.0 0.0 0.00 0.00 0.00 94 1012.4
20260505091042 52 304 4.0 0.0 0.00 0.00 0.00 94 1012.6
20260505090542 52 298 3.0 0.0 0.00 0.00 0.00 94 1012.6
20260505090051 52 304 2.0 0.0 0.00 0.00 0.00 94 1012.6
20260505085538 52 267 2.0 0.0 0.00 0.00 0.00 94 1012.6
20260505085037 52 280 2.0 0.0 0.00 0.00 0.00 94 1012.6
20260505084538 52 302 2.0 0.0 0.00 0.00 0.00 94 1012.6
20260505084036 52 308 2.0 0.0 0.00 0.00 0.00 94 1012.9
20260505083537 52 281 2.0 0.0 0.00 0.00 0.00 94 1012.9
20260505083042 52 286 2.0 0.0 0.00 0.00 0.00 94 1012.9
20260505082535 52 267 2.0 0.0 0.00 0.00 0.00 94 1012.9
20260505082035 52 291 2.0 0.0 0.00 0.00 0.00 94 1012.9
20260505081550 52 288 2.0 0.0 0.00 0.00 0.00 94 1012.9
20260505081035 52 295 2.0 0.0 0.00 0.00 0.00 94 1012.8
20260505080539 52 317 2.0 0.0 0.00 0.00 0.00 94 1012.8
20260505080042 52 288 2.0 0.0 0.00 0.00 0.00 94 1012.8
20260505075534 53 272 1.0 0.0 0.00 0.00 0.00 94 1012.9
20260505075033 53 238 1.0 0.0 0.00 0.00 0.00 94 1012.9
20260505074538 53 188 1.0 0.0 0.00 0.00 0.00 94 1012.9
20260505074034 53 188 1.0 0.0 0.00 0.00 0.00 94 1013.0
20260505073534 53 227 1.0 0.0 0.00 0.00 0.00 94 1013.0
20260505073032 52 229 2.0 0.0 0.00 0.00 0.00 94 1013.0
20260505072531 52 291 2.0 0.0 0.00 0.00 0.00 94 1013.0
20260505072031 52 306 2.0 0.0 0.00 0.00 0.00 94 1013.0
20260505071531 52 291 2.0 0.0 0.00 0.00 0.00 94 1013.0
20260505071031 52 296 2.0 0.0 0.00 0.00 0.00 94 1013.1
20260505070531 52 280 2.0 0.0 0.00 0.00 0.00 94 1013.1
20260505070031 52 297 2.0 0.0 0.00 0.00 0.01 94 1013.1
20260505065530 52 281 2.0 0.0 0.00 0.00 0.01 94 1013.1
20260505065030 52 265 2.0 0.0 0.00 0.00 0.01 94 1013.1
20260505064530 52 277 2.0 0.0 0.00 0.00 0.01 94 1013.1
20260505064029 52 284 2.0 0.0 0.00 0.00 0.01 94 1013.1
20260505063529 52 290 1.0 0.0 0.00 0.00 0.00 94 1013.1
20260505063035 52 189 0.0 0.0 0.00 0.00 0.00 94 1013.1
20260505062529 52 185 0.0 0.0 0.00 0.00 0.00 94 1013.2
20260505062029 52 171 0.0 0.0 0.00 0.00 0.00 94 1013.2
20260505061533 52 171 0.0 0.0 0.00 0.00 0.00 94 1013.2
20260505061029 52 216 0.0 0.0 0.00 0.00 0.00 94 1013.3
20260505060528 52 216 1.0 0.0 0.00 0.00 0.00 94 1013.3
20260505060030 52 158 2.0 0.0 0.00 0.00 0.00 94 1013.3
20260505055527 52 277 3.0 0.0 0.00 0.00 0.00 94 1013.3
20260505055029 52 258 3.0 0.0 0.00 0.00 0.00 94 1013.3
20260505054530 52 277 3.0 0.0 0.00 0.00 0.00 94 1013.3
20260505054027 52 285 2.0 0.0 0.00 0.00 0.00 94 1013.4
20260505053527 53 290 1.0 0.0 0.00 0.00 0.00 94 1013.4
20260505053026 53 184 1.0 0.0 0.00 0.00 0.00 94 1013.4